,,,PA_Meas_PMT16A,,PR_Meas_QMR101_102,,RH_Meas_QMH101,,SR_Meas_QMS101,,TA_Meas_QMH101,,GenWind,,GenWind,
date,time,status,PA,status,PR,status,RH,status,SR,status,TA,status,DirAvg,status,SpdAvg,
2010-07-23, 00:00:05,VALID,1010.18,VALID,0,VALID,101.43,VALID,0.105969,VALID,23.5381,VALID,53,VALID,0,
2010-07-23, 00:01:05,VALID,1010.16,VALID,0,VALID,101.415,VALID,0.105969,VALID,23.5363,VALID,53,VALID,0,
2010-07-23, 00:02:05,VALID,1010.18,VALID,0,VALID,101.407,VALID,0.105969,VALID,23.5381,VALID,53,VALID,0,
2010-07-23, 00:03:05,VALID,1010.17,VALID,0,VALID,101.423,VALID,0,VALID,23.5381,VALID,53,VALID,0,
2010-07-23, 00:04:05,VALID,1010.17,VALID,0,VALID,101.423,VALID,0,VALID,23.5169,VALID,53,VALID,0,
2010-07-23, 00:05:05,VALID,1010.16,VALID,0,VALID,101.423,VALID,0.105969,VALID,23.5169,VALID,53,VALID,0,
2010-07-23, 00:06:05,VALID,1010.14,VALID,0,VALID,101.43,VALID,0.105969,VALID,23.4974,VALID,53,VALID,0,
2010-07-23, 00:07:05,VALID,1010.17,VALID,0,VALID,101.423,VALID,0,VALID,23.5363,VALID,14,VALID,0.427734,
2010-07-23, 00:08:05,VALID,1010.11,VALID,0,VALID,101.4,VALID,0.105969,VALID,23.5381,VALID,14,VALID,0.00195313,
2010-07-23, 00:09:05,VALID,1010.15,VALID,0,VALID,101.392,VALID,0.105969,VALID,23.5576,VALID,53,VALID,0.307031,
2010-07-23, 00:10:05,VALID,1010.17,VALID,0,VALID,101.377,VALID,0,VALID,23.5771,VALID,134,VALID,1.08477,
2010-07-23, 00:11:05,VALID,1010.15,VALID,0,VALID,101.392,VALID,0,VALID,23.5576,VALID,113,VALID,0.368359,
2010-07-23, 00:12:05,VALID,1010.15,VALID,0,VALID,101.392,VALID,0,VALID,23.5363,VALID,66,VALID,0.441797,
2010-07-23, 00:13:05,VALID,1010.15,VALID,0,VALID,101.407,VALID,0.105969,VALID,23.5771,VALID,68,VALID,0.768359,
2010-07-23, 00:14:05,VALID,1010.16,VALID,0,VALID,101.415,VALID,0.105969,VALID,23.5771,VALID,68,VALID,0.348828,
2010-07-23, 00:15:05,VALID,1010.14,VALID,0,VALID,101.392,VALID,0,VALID,23.5966,VALID,101,VALID,0.0121094,
2010-07-23, 00:16:05,VALID,1010.1,VALID,0,VALID,101.392,VALID,0.105969,VALID,23.5558,VALID,100,VALID,0,
2010-07-23, 00:17:05,VALID,1010.07,VALID,0,VALID,101.461,VALID,0,VALID,23.5576,VALID,27,VALID,0.463281,
2010-07-23, 00:18:05,VALID,1010.09,VALID,0,VALID,101.453,VALID,0,VALID,23.5381,VALID,27,VALID,0.532812,
2010-07-23, 00:19:05,VALID,1010.06,VALID,0,VALID,101.445,VALID,0.105969,VALID,23.4974,VALID,39,VALID,0.373828,
2010-07-23, 00:20:05,VALID,1010.07,VALID,0,VALID,101.468,VALID,0,VALID,23.4974,VALID,84,VALID,0.288672,
2010-07-23, 00:21:05,VALID,1010.04,VALID,0,VALID,101.43,VALID,0.105969,VALID,23.5363,VALID,128,VALID,0.762109,
2010-07-23, 00:22:05,VALID,1010.02,VALID,0,VALID,101.407,VALID,0.105969,VALID,23.5771,VALID,128,VALID,0.315625,
2010-07-23, 00:23:05,VALID,1010.02,VALID,0,VALID,101.377,VALID,0,VALID,23.5771,VALID,102,VALID,0.634375,
2010-07-23, 00:24:05,VALID,1010,VALID,0,VALID,101.423,VALID,0.105969,VALID,23.5558,VALID,102,VALID,0.520312,
2010-07-23, 00:25:05,VALID,1009.98,VALID,0,VALID,101.4,VALID,0.105969,VALID,23.5966,VALID,88,VALID,0.598047,
2010-07-23, 00:26:05,VALID,1009.94,VALID,0,VALID,101.415,VALID,0,VALID,23.5966,VALID,111,VALID,0.300391,
2010-07-23, 00:27:05,VALID,1009.91,VALID,0,VALID,101.384,VALID,0.105969,VALID,23.5948,VALID,111,VALID,0.285547,
2010-07-23, 00:28:05,VALID,1009.92,VALID,0,VALID,101.384,VALID,0.105969,VALID,23.5948,VALID,111,VALID,0,
2010-07-23, 00:29:05,VALID,1009.86,VALID,0,VALID,101.415,VALID,0,VALID,23.5753,VALID,89,VALID,0.255078,
2010-07-23, 00:30:05,VALID,1009.84,VALID,0,VALID,101.4,VALID,0,VALID,23.5558,VALID,89,VALID,0.0554687,
2010-07-23, 00:31:05,VALID,1009.84,VALID,0,VALID,101.407,VALID,0.105969,VALID,23.5966,VALID,90,VALID,0.162891,
2010-07-23, 00:32:05,VALID,1009.84,VALID,0,VALID,101.377,VALID,0,VALID,23.5948,VALID,90,VALID,0.259375,
2010-07-23, 00:33:05,VALID,1009.82,VALID,0,VALID,101.369,VALID,0.105969,VALID,23.6143,VALID,90,VALID,0.103125,
2010-07-23, 00:34:05,VALID,1009.78,VALID,0,VALID,101.384,VALID,0,VALID,23.5984,VALID,90,VALID,0.158984,
2010-07-23, 00:35:05,VALID,1009.79,VALID,0,VALID,101.392,VALID,0,VALID,23.5789,VALID,90,VALID,0.053125,
2010-07-23, 00:36:05,VALID,1009.77,VALID,0,VALID,101.407,VALID,0,VALID,23.5576,VALID,90,VALID,0.130859,
2010-07-23, 00:37:05,VALID,1009.74,VALID,0,VALID,101.415,VALID,0,VALID,23.5381,VALID,90,VALID,0,
2010-07-23, 00:38:05,VALID,1009.71,VALID,0,VALID,101.407,VALID,0,VALID,23.5594,VALID,90,VALID,0,
2010-07-23, 00:39:05,VALID,1009.7,VALID,0,VALID,101.43,VALID,0,VALID,23.5399,VALID,90,VALID,0,
2010-07-23, 00:40:05,VALID,1009.68,VALID,0,VALID,101.415,VALID,0,VALID,23.4992,VALID,90,VALID,0,
2010-07-23, 00:41:05,VALID,1009.68,VALID,0,VALID,101.423,VALID,0,VALID,23.4992,VALID,90,VALID,0,
2010-07-23, 00:42:05,VALID,1009.69,VALID,0,VALID,101.407,VALID,0,VALID,23.4992,VALID,90,VALID,0,
2010-07-23, 00:43:05,VALID,1009.67,VALID,0,VALID,101.415,VALID,0,VALID,23.5009,VALID,90,VALID,0,
2010-07-23, 00:44:05,VALID,1009.66,VALID,0,VALID,101.4,VALID,0,VALID,23.5204,VALID,90,VALID,0,
2010-07-23, 00:45:05,VALID,1009.65,VALID,0,VALID,101.384,VALID,0,VALID,23.4992,VALID,90,VALID,0,
2010-07-23, 00:46:05,VALID,1009.63,VALID,0,VALID,101.392,VALID,0,VALID,23.5204,VALID,90,VALID,0,
2010-07-23, 00:47:05,VALID,1009.64,VALID,0,VALID,101.384,VALID,0,VALID,23.5204,VALID,90,VALID,0,
2010-07-23, 00:48:05,VALID,1009.64,VALID,0,VALID,101.392,VALID,0,VALID,23.4992,VALID,90,VALID,0,
2010-07-23, 00:49:05,VALID,1009.63,VALID,0,VALID,101.415,VALID,0,VALID,23.4797,VALID,90,VALID,0.00078125,
2010-07-23, 00:50:05,VALID,1009.6,VALID,0,VALID,101.407,VALID,0,VALID,23.4797,VALID,90,VALID,0.046875,
2010-07-23, 00:51:05,VALID,1009.58,VALID,0,VALID,101.407,VALID,0,VALID,23.4797,VALID,90,VALID,0,
2010-07-23, 00:52:05,VALID,1009.58,VALID,0,VALID,101.4,VALID,0,VALID,23.4797,VALID,90,VALID,0,
2010-07-23, 00:53:05,VALID,1009.56,VALID,0,VALID,101.392,VALID,0,VALID,23.5009,VALID,90,VALID,0,
2010-07-23, 00:54:05,VALID,1009.54,VALID,0,VALID,101.392,VALID,0,VALID,23.4602,VALID,90,VALID,0,
2010-07-23, 00:55:05,VALID,1009.54,VALID,0,VALID,101.4,VALID,0,VALID,23.4602,VALID,90,VALID,0,
2010-07-23, 00:56:05,VALID,1009.56,VALID,0,VALID,101.4,VALID,0,VALID,23.4602,VALID,90,VALID,0,
2010-07-23, 00:57:05,VALID,1009.55,VALID,0,VALID,101.407,VALID,0,VALID,23.4407,VALID,90,VALID,0.0648438,
2010-07-23, 00:58:05,VALID,1009.54,VALID,0,VALID,101.4,VALID,0,VALID,23.4425,VALID,90,VALID,0.189844,
2010-07-23, 00:59:05,VALID,1009.56,VALID,0,VALID,101.4,VALID,0,VALID,23.4212,VALID,90,VALID,0.00585938,
2010-07-23, 01:00:05,VALID,1009.53,VALID,0,VALID,101.407,VALID,0,VALID,23.4212,VALID,90,VALID,0,
2010-07-23, 01:01:05,VALID,1009.53,VALID,0,VALID,101.377,VALID,0,VALID,23.4407,VALID,90,VALID,0,
2010-07-23, 01:02:05,VALID,1009.54,VALID,0,VALID,101.354,VALID,0,VALID,23.4815,VALID,86,VALID,0,
2010-07-23, 01:03:05,VALID,1009.52,VALID,0,VALID,101.339,VALID,0,VALID,23.4797,VALID,83,VALID,0,
2010-07-23, 01:04:05,VALID,1009.5,VALID,0,VALID,101.354,VALID,0,VALID,23.4779,VALID,105,VALID,0.761328,
2010-07-23, 01:05:05,VALID,1009.49,VALID,0,VALID,101.339,VALID,0.105969,VALID,23.5169,VALID,102,VALID,0.530859,
2010-07-23, 01:06:05,VALID,1009.48,VALID,0,VALID,101.331,VALID,0,VALID,23.4974,VALID,102,VALID,0.431641,
2010-07-23, 01:07:05,VALID,1009.49,VALID,0,VALID,101.331,VALID,0.105969,VALID,23.5169,VALID,99,VALID,0.746484,
2010-07-23, 01:08:05,VALID,1009.48,VALID,0,VALID,101.339,VALID,0.105969,VALID,23.5363,VALID,101,VALID,0.767578,
2010-07-23, 01:09:05,VALID,1009.43,VALID,0,VALID,101.339,VALID,0.105969,VALID,23.5381,VALID,104,VALID,0.711719,
2010-07-23, 01:10:05,VALID,1009.41,VALID,0,VALID,101.369,VALID,0.105969,VALID,23.5169,VALID,104,VALID,0.6625,
2010-07-23, 01:11:05,VALID,1009.38,VALID,0,VALID,101.346,VALID,0.105969,VALID,23.5169,VALID,102,VALID,0.412891,
2010-07-23, 01:12:05,VALID,1009.35,VALID,0,VALID,101.354,VALID,0.105969,VALID,23.5169,VALID,82,VALID,0.490625,
2010-07-23, 01:13:05,VALID,1009.36,VALID,0,VALID,101.354,VALID,0.105969,VALID,23.5169,VALID,82,VALID,0.255859,
2010-07-23, 01:14:05,VALID,1009.32,VALID,0,VALID,101.362,VALID,0,VALID,23.5186,VALID,95,VALID,0.370703,
2010-07-23, 01:15:05,VALID,1009.32,VALID,0,VALID,101.369,VALID,0.105969,VALID,23.5186,VALID,118,VALID,0.346094,
2010-07-23, 01:16:05,VALID,1009.29,VALID,0,VALID,101.377,VALID,0.105969,VALID,23.4992,VALID,118,VALID,0.616406,
2010-07-23, 01:17:05,VALID,1009.29,VALID,0,VALID,101.4,VALID,0.105969,VALID,23.4992,VALID,97,VALID,0.750391,
2010-07-23, 01:18:05,VALID,1009.3,VALID,0,VALID,101.377,VALID,0.105969,VALID,23.4992,VALID,95,VALID,0.475781,
2010-07-23, 01:19:05,VALID,1009.32,VALID,0,VALID,101.415,VALID,0.105969,VALID,23.4389,VALID,110,VALID,0.419922,
2010-07-23, 01:20:05,VALID,1009.31,VALID,0,VALID,101.4,VALID,0,VALID,23.4584,VALID,111,VALID,1.2168,
2010-07-23, 01:21:05,VALID,1009.32,VALID,0,VALID,101.384,VALID,0,VALID,23.4584,VALID,98,VALID,0.658984,
2010-07-23, 01:22:05,VALID,1009.29,VALID,0,VALID,101.392,VALID,0.105969,VALID,23.4584,VALID,76,VALID,0.0714844,
2010-07-23, 01:23:05,VALID,1009.27,VALID,0,VALID,101.384,VALID,0.105969,VALID,23.4389,VALID,99,VALID,0.929297,
2010-07-23, 01:24:05,VALID,1009.28,VALID,0,VALID,101.415,VALID,0.105969,VALID,23.4194,VALID,100,VALID,0.730859,
2010-07-23, 01:25:05,VALID,1009.27,VALID,0,VALID,101.445,VALID,0.105969,VALID,23.4194,VALID,86,VALID,1.29922,
2010-07-23, 01:26:05,VALID,1009.24,VALID,0,VALID,101.445,VALID,0.105969,VALID,23.3805,VALID,81,VALID,1.13398,
2010-07-23, 01:27:05,VALID,1009.23,VALID,0,VALID,101.445,VALID,0.105969,VALID,23.4,VALID,85,VALID,1.28867,
2010-07-23, 01:28:05,VALID,1009.24,VALID,0,VALID,101.461,VALID,0.105969,VALID,23.3805,VALID,88,VALID,1.2668,
2010-07-23, 01:29:05,VALID,1009.23,VALID,0,VALID,101.438,VALID,0,VALID,23.4017,VALID,86,VALID,1.53633,
2010-07-23, 01:30:05,VALID,1009.2,VALID,0,VALID,101.468,VALID,0,VALID,23.3823,VALID,98,VALID,1.44648,
2010-07-23, 01:31:04,VALID,1009.19,VALID,0,VALID,101.453,VALID,0,VALID,23.361,VALID,98,VALID,1.02578,
2010-07-23, 01:32:04,VALID,1009.18,VALID,0,VALID,101.453,VALID,0.105969,VALID,23.361,VALID,96,VALID,1.32969,
2010-07-23, 01:33:04,VALID,1009.17,VALID,0,VALID,101.461,VALID,0.105969,VALID,23.3805,VALID,81,VALID,1.35859,
2010-07-23, 01:34:04,VALID,1009.13,VALID,0,VALID,101.438,VALID,0.105969,VALID,23.4017,VALID,104,VALID,1.29492,
2010-07-23, 01:35:04,VALID,1009.15,VALID,0,VALID,101.43,VALID,0.105969,VALID,23.3805,VALID,108,VALID,1.11367,
2010-07-23, 01:36:04,VALID,1009.14,VALID,0,VALID,101.423,VALID,0.105969,VALID,23.3805,VALID,84,VALID,1.00898,
2010-07-23, 01:37:04,VALID,1009.13,VALID,0,VALID,101.453,VALID,0.105969,VALID,23.361,VALID,98,VALID,0.675391,
2010-07-23, 01:38:04,VALID,1009.11,VALID,0,VALID,101.43,VALID,0,VALID,23.4,VALID,88,VALID,0.838281,
2010-07-23, 01:39:04,VALID,1009.12,VALID,0,VALID,101.438,VALID,0.105969,VALID,23.3805,VALID,112,VALID,0.457031,
2010-07-23, 01:40:04,VALID,1009.09,VALID,0,VALID,101.4,VALID,0,VALID,23.4212,VALID,95,VALID,0.746875,
2010-07-23, 01:41:04,VALID,1009.06,VALID,0,VALID,101.445,VALID,0.105969,VALID,23.361,VALID,105,VALID,0.677344,
2010-07-23, 01:42:04,VALID,1009.05,VALID,0,VALID,101.423,VALID,0.105969,VALID,23.3805,VALID,82,VALID,0.648047,
2010-07-23, 01:43:04,VALID,1009.01,VALID,0,VALID,101.445,VALID,0.105969,VALID,23.3805,VALID,88,VALID,0.857813,
2010-07-23, 01:44:04,VALID,1009,VALID,0,VALID,101.438,VALID,0.105969,VALID,23.3805,VALID,100,VALID,0.836328,
2010-07-23, 01:45:04,VALID,1008.96,VALID,0,VALID,101.423,VALID,0.105969,VALID,23.3805,VALID,92,VALID,1.22461,
2010-07-23, 01:46:04,VALID,1008.98,VALID,0,VALID,101.43,VALID,0.105969,VALID,23.4,VALID,111,VALID,1.21484,
2010-07-23, 01:47:04,VALID,1008.97,VALID,0,VALID,101.415,VALID,0.105969,VALID,23.4,VALID,95,VALID,0.884375,
2010-07-23, 01:48:04,VALID,1008.96,VALID,0,VALID,101.438,VALID,0.105969,VALID,23.4,VALID,102,VALID,0.826172,
2010-07-23, 01:49:04,VALID,1008.94,VALID,0,VALID,101.423,VALID,0,VALID,23.4,VALID,108,VALID,0.848047,
2010-07-23, 01:50:04,VALID,1008.94,VALID,0,VALID,101.392,VALID,0.105969,VALID,23.4407,VALID,113,VALID,0.565234,
2010-07-23, 01:51:04,VALID,1008.91,VALID,0,VALID,101.392,VALID,0,VALID,23.4212,VALID,140,VALID,0.369922,
2010-07-23, 01:52:04,VALID,1008.89,VALID,0,VALID,101.4,VALID,0.105969,VALID,23.4602,VALID,155,VALID,0.728516,
2010-07-23, 01:53:04,VALID,1008.86,VALID,0,VALID,101.407,VALID,0.211938,VALID,23.4194,VALID,144,VALID,0.994141,
2010-07-23, 01:54:04,VALID,1008.85,VALID,0,VALID,101.407,VALID,0.105969,VALID,23.4,VALID,144,VALID,0.727734,
2010-07-23, 01:55:04,VALID,1008.84,VALID,0,VALID,101.423,VALID,0.105969,VALID,23.4,VALID,146,VALID,0.86875,
2010-07-23, 01:56:04,VALID,1008.82,VALID,0,VALID,101.423,VALID,0.105969,VALID,23.4,VALID,133,VALID,0.730078,
2010-07-23, 01:57:04,VALID,1008.79,VALID,0,VALID,101.453,VALID,0.105969,VALID,23.3805,VALID,124,VALID,0.832812,
2010-07-23, 01:58:04,VALID,1008.78,VALID,0,VALID,101.461,VALID,0.105969,VALID,23.3823,VALID,154,VALID,1.0375,
2010-07-23, 01:59:04,VALID,1008.8,VALID,0,VALID,101.453,VALID,0,VALID,23.4017,VALID,139,VALID,0.779297,
2010-07-23, 02:00:04,VALID,1008.76,VALID,0,VALID,101.445,VALID,0,VALID,23.3823,VALID,135,VALID,0.866016,
2010-07-23, 02:01:04,VALID,1008.77,VALID,0,VALID,101.43,VALID,0.105969,VALID,23.3805,VALID,142,VALID,0.625,
2010-07-23, 02:02:04,VALID,1008.75,VALID,0,VALID,101.4,VALID,0.105969,VALID,23.4,VALID,139,VALID,0.598437,
2010-07-23, 02:03:04,VALID,1008.72,VALID,0,VALID,101.415,VALID,0.211938,VALID,23.3805,VALID,132,VALID,0.635938,
2010-07-23, 02:04:04,VALID,1008.71,VALID,0,VALID,101.438,VALID,0,VALID,23.3628,VALID,127,VALID,0.789844,
2010-07-23, 02:05:04,VALID,1008.7,VALID,0,VALID,101.43,VALID,0,VALID,23.3433,VALID,129,VALID,0.728516,
2010-07-23, 02:06:04,VALID,1008.65,VALID,0,VALID,101.43,VALID,0,VALID,23.3628,VALID,138,VALID,1.37812,
2010-07-23, 02:07:04,VALID,1008.62,VALID,0,VALID,101.468,VALID,0,VALID,23.3433,VALID,128,VALID,0.858984,
2010-07-23, 02:08:04,VALID,1008.62,VALID,0,VALID,101.461,VALID,0,VALID,23.3433,VALID,122,VALID,0.486328,
2010-07-23, 02:09:04,VALID,1008.59,VALID,0,VALID,101.43,VALID,0,VALID,23.3628,VALID,136,VALID,0.810938,
2010-07-23, 02:10:04,VALID,1008.57,VALID,0,VALID,101.43,VALID,0,VALID,23.3628,VALID,131,VALID,0.564062,
2010-07-23, 02:11:04,VALID,1008.57,VALID,0,VALID,101.43,VALID,0,VALID,23.3628,VALID,124,VALID,0.500391,
2010-07-23, 02:12:04,VALID,1008.55,VALID,0,VALID,101.423,VALID,0,VALID,23.3433,VALID,129,VALID,0.715234,
2010-07-23, 02:13:04,VALID,1008.54,VALID,0,VALID,101.445,VALID,0,VALID,23.3433,VALID,129,VALID,0.389453,
2010-07-23, 02:14:04,VALID,1008.54,VALID,0,VALID,101.453,VALID,0,VALID,23.3433,VALID,129,VALID,0.396484,
2010-07-23, 02:15:04,VALID,1008.52,VALID,0,VALID,101.423,VALID,0,VALID,23.3433,VALID,129,VALID,0.282031,
2010-07-23, 02:16:04,VALID,1008.48,VALID,0,VALID,101.407,VALID,0,VALID,23.384,VALID,123,VALID,0.475,
2010-07-23, 02:17:04,VALID,1008.49,VALID,0,VALID,101.4,VALID,0,VALID,23.3628,VALID,116,VALID,0.403516,
2010-07-23, 02:18:04,VALID,1008.46,VALID,0,VALID,101.384,VALID,0,VALID,23.3823,VALID,116,VALID,0.0847656,
2010-07-23, 02:19:04,VALID,1008.47,VALID,0,VALID,101.377,VALID,0.105969,VALID,23.361,VALID,116,VALID,0,
2010-07-23, 02:20:04,VALID,1008.43,VALID,0,VALID,101.4,VALID,0.105969,VALID,23.361,VALID,116,VALID,0,
2010-07-23, 02:21:04,VALID,1008.43,VALID,0,VALID,101.392,VALID,0.105969,VALID,23.3823,VALID,116,VALID,0,
2010-07-23, 02:22:04,VALID,1008.39,VALID,0,VALID,101.4,VALID,0.105969,VALID,23.3628,VALID,116,VALID,0,
2010-07-23, 02:23:04,VALID,1008.4,VALID,0,VALID,101.4,VALID,0.105969,VALID,23.361,VALID,117,VALID,0,
2010-07-23, 02:24:04,VALID,1008.39,VALID,0,VALID,101.4,VALID,0.105969,VALID,23.3823,VALID,127,VALID,0,
2010-07-23, 02:25:04,VALID,1008.36,VALID,0,VALID,101.392,VALID,0.105969,VALID,23.3628,VALID,117,VALID,0.200391,
2010-07-23, 02:26:04,VALID,1008.35,VALID,0,VALID,101.392,VALID,0.105969,VALID,23.3805,VALID,121,VALID,0.603516,
2010-07-23, 02:27:04,VALID,1008.35,VALID,0,VALID,101.384,VALID,0.105969,VALID,23.3823,VALID,120,VALID,0.224219,
2010-07-23, 02:28:04,VALID,1008.33,VALID,0,VALID,101.4,VALID,0.105969,VALID,23.3805,VALID,103,VALID,0.784766,
2010-07-23, 02:29:04,VALID,1008.3,VALID,0,VALID,101.4,VALID,0.105969,VALID,23.361,VALID,107,VALID,0.299609,
2010-07-23, 02:30:04,VALID,1008.28,VALID,0,VALID,101.415,VALID,0.105969,VALID,23.361,VALID,114,VALID,0.972266,
2010-07-23, 02:31:04,VALID,1008.27,VALID,0,VALID,101.407,VALID,0.105969,VALID,23.3823,VALID,116,VALID,0.662109,
2010-07-23, 02:32:04,VALID,1008.29,VALID,0,VALID,101.4,VALID,0.105969,VALID,23.3805,VALID,116,VALID,0.239063,
2010-07-23, 02:33:04,VALID,1008.26,VALID,0,VALID,101.407,VALID,0.105969,VALID,23.3805,VALID,119,VALID,0.428125,
2010-07-23, 02:34:04,VALID,1008.26,VALID,0,VALID,101.4,VALID,0,VALID,23.4017,VALID,121,VALID,0.408984,
2010-07-23, 02:35:04,VALID,1008.26,VALID,0,VALID,101.4,VALID,0,VALID,23.3823,VALID,121,VALID,0.748828,
2010-07-23, 02:36:04,VALID,1008.23,VALID,0,VALID,101.423,VALID,0,VALID,23.4017,VALID,147,VALID,0.714453,
2010-07-23, 02:37:04,VALID,1008.23,VALID,0,VALID,101.415,VALID,0,VALID,23.4017,VALID,134,VALID,0.913672,
2010-07-23, 02:38:04,VALID,1008.21,VALID,0,VALID,101.423,VALID,0,VALID,23.3628,VALID,128,VALID,0.126563,
2010-07-23, 02:39:04,VALID,1008.19,VALID,0,VALID,101.407,VALID,0,VALID,23.4017,VALID,128,VALID,0.314063,
2010-07-23, 02:40:04,VALID,1008.2,VALID,0,VALID,101.415,VALID,0,VALID,23.4017,VALID,136,VALID,1.04805,
2010-07-23, 02:41:04,VALID,1008.2,VALID,0,VALID,101.423,VALID,0,VALID,23.3823,VALID,131,VALID,0.931641,
2010-07-23, 02:42:04,VALID,1008.18,VALID,0,VALID,101.438,VALID,0,VALID,23.3823,VALID,126,VALID,1.07734,
2010-07-23, 02:43:04,VALID,1008.18,VALID,0,VALID,101.453,VALID,0,VALID,23.3823,VALID,129,VALID,0.850391,
2010-07-23, 02:44:04,VALID,1008.13,VALID,0,VALID,101.438,VALID,0,VALID,23.3823,VALID,120,VALID,0.85,
2010-07-23, 02:45:04,VALID,1008.12,VALID,0,VALID,101.43,VALID,0,VALID,23.4017,VALID,139,VALID,0.970312,
2010-07-23, 02:46:04,VALID,1008.12,VALID,0,VALID,101.43,VALID,0,VALID,23.4035,VALID,118,VALID,0.774609,
2010-07-23, 02:47:04,VALID,1008.11,VALID,0,VALID,101.423,VALID,0,VALID,23.4017,VALID,125,VALID,1.01445,
2010-07-23, 02:48:04,VALID,1008.09,VALID,0,VALID,101.453,VALID,0,VALID,23.4035,VALID,121,VALID,0.5125,
2010-07-23, 02:49:04,VALID,1008.08,VALID,0,VALID,101.453,VALID,0,VALID,23.3823,VALID,126,VALID,0.526172,
2010-07-23, 02:50:04,VALID,1008.07,VALID,0,VALID,101.438,VALID,0,VALID,23.3805,VALID,126,VALID,0.568359,
2010-07-23, 02:51:04,VALID,1008.07,VALID,0,VALID,101.423,VALID,0,VALID,23.4017,VALID,114,VALID,0.371875,
2010-07-23, 02:52:04,VALID,1008.08,VALID,0,VALID,101.4,VALID,0.105969,VALID,23.4,VALID,131,VALID,0.666406,
2010-07-23, 02:53:04,VALID,1008.07,VALID,0,VALID,101.423,VALID,0.105969,VALID,23.4,VALID,101,VALID,0.688281,
2010-07-23, 02:54:04,VALID,1008.09,VALID,0,VALID,101.415,VALID,0.105969,VALID,23.4194,VALID,126,VALID,0.564062,
2010-07-23, 02:55:04,VALID,1008.09,VALID,0,VALID,101.384,VALID,0,VALID,23.4389,VALID,140,VALID,0.276563,
2010-07-23, 02:56:04,VALID,1008.1,VALID,0,VALID,101.4,VALID,0.105969,VALID,23.4602,VALID,100,VALID,1.08828,
2010-07-23, 02:57:04,VALID,1008.11,VALID,0,VALID,101.415,VALID,0.105969,VALID,23.4194,VALID,112,VALID,0.673437,
2010-07-23, 02:58:04,VALID,1008.15,VALID,0,VALID,101.423,VALID,0,VALID,23.4602,VALID,114,VALID,0.566406,
2010-07-23, 02:59:04,VALID,1008.14,VALID,0,VALID,101.423,VALID,0.105969,VALID,23.4389,VALID,94,VALID,0.560938,
2010-07-23, 03:00:04,VALID,1008.16,VALID,0,VALID,101.415,VALID,0.105969,VALID,23.4584,VALID,99,VALID,0,
2010-07-23, 03:01:04,VALID,1008.18,VALID,0,VALID,101.407,VALID,0.105969,VALID,23.4797,VALID,100,VALID,0.0605469,
2010-07-23, 03:02:04,VALID,1008.18,VALID,0,VALID,101.392,VALID,0,VALID,23.4584,VALID,100,VALID,0.366797,
2010-07-23, 03:03:04,VALID,1008.19,VALID,0,VALID,101.407,VALID,0.105969,VALID,23.4584,VALID,100,VALID,0.246484,
2010-07-23, 03:04:04,VALID,1008.18,VALID,0,VALID,101.415,VALID,0.105969,VALID,23.4584,VALID,79,VALID,0.692187,
2010-07-23, 03:05:04,VALID,1008.2,VALID,0,VALID,101.407,VALID,0.105969,VALID,23.4797,VALID,67,VALID,0.841797,
2010-07-23, 03:06:04,VALID,1008.18,VALID,0,VALID,101.423,VALID,0.105969,VALID,23.4779,VALID,69,VALID,0.411328,
2010-07-23, 03:07:04,VALID,1008.19,VALID,0,VALID,101.4,VALID,0,VALID,23.4992,VALID,64,VALID,0.591406,
2010-07-23, 03:08:04,VALID,1008.19,VALID,0,VALID,101.415,VALID,0.105969,VALID,23.4779,VALID,62,VALID,0.734375,
2010-07-23, 03:09:04,VALID,1008.19,VALID,0,VALID,101.384,VALID,0.105969,VALID,23.5186,VALID,81,VALID,0.596094,
2010-07-23, 03:10:04,VALID,1008.2,VALID,0,VALID,101.369,VALID,0,VALID,23.4974,VALID,84,VALID,0.767578,
2010-07-23, 03:11:04,VALID,1008.16,VALID,0,VALID,101.384,VALID,0,VALID,23.4974,VALID,83,VALID,0.519141,
2010-07-23, 03:12:04,VALID,1008.14,VALID,0,VALID,101.392,VALID,0.105969,VALID,23.5381,VALID,83,VALID,0.630469,
2010-07-23, 03:13:04,VALID,1008.13,VALID,0,VALID,101.4,VALID,0.105969,VALID,23.5186,VALID,81,VALID,0.962891,
2010-07-23, 03:14:04,VALID,1008.12,VALID,0,VALID,101.43,VALID,0.105969,VALID,23.5186,VALID,89,VALID,0.959766,
2010-07-23, 03:15:04,VALID,1008.12,VALID,0,VALID,101.445,VALID,0.105969,VALID,23.4974,VALID,93,VALID,0.614453,
2010-07-23, 03:16:04,VALID,1008.09,VALID,0,VALID,101.43,VALID,0,VALID,23.4974,VALID,88,VALID,0.459375,
2010-07-23, 03:17:04,VALID,1008.09,VALID,0,VALID,101.445,VALID,0,VALID,23.5186,VALID,93,VALID,0.885156,
2010-07-23, 03:18:04,VALID,1008.09,VALID,0,VALID,101.453,VALID,0.105969,VALID,23.5186,VALID,78,VALID,0.912891,
2010-07-23, 03:19:04,VALID,1008.08,VALID,0,VALID,101.461,VALID,0.105969,VALID,23.5169,VALID,111,VALID,0.758203,
2010-07-23, 03:20:04,VALID,1008.05,VALID,0,VALID,101.445,VALID,0,VALID,23.4974,VALID,81,VALID,0.962109,
2010-07-23, 03:21:04,VALID,1008.05,VALID,0,VALID,101.484,VALID,0.105969,VALID,23.4974,VALID,116,VALID,0.823828,
2010-07-23, 03:22:04,VALID,1008.01,VALID,0,VALID,101.445,VALID,0,VALID,23.4992,VALID,105,VALID,0.782031,
2010-07-23, 03:23:04,VALID,1007.98,VALID,0,VALID,101.476,VALID,0.105969,VALID,23.4992,VALID,102,VALID,0.960547,
2010-07-23, 03:24:04,VALID,1008,VALID,0,VALID,101.468,VALID,0.105969,VALID,23.4779,VALID,108,VALID,0.655859,
2010-07-23, 03:25:04,VALID,1007.98,VALID,0,VALID,101.476,VALID,0,VALID,23.4779,VALID,117,VALID,0.804297,
2010-07-23, 03:26:04,VALID,1007.96,VALID,0,VALID,101.476,VALID,0,VALID,23.5186,VALID,141,VALID,1.03477,
2010-07-23, 03:27:04,VALID,1007.95,VALID,0,VALID,101.484,VALID,0.105969,VALID,23.4974,VALID,151,VALID,1.00156,
2010-07-23, 03:28:04,VALID,1007.95,VALID,0,VALID,101.506,VALID,0.105969,VALID,23.4992,VALID,174,VALID,0.9625,
2010-07-23, 03:29:04,VALID,1007.94,VALID,0,VALID,101.514,VALID,0.105969,VALID,23.4779,VALID,147,VALID,0.523047,
2010-07-23, 03:30:04,VALID,1007.9,VALID,0,VALID,101.499,VALID,0.105969,VALID,23.4779,VALID,136,VALID,0.5,
2010-07-23, 03:31:04,VALID,1007.91,VALID,0,VALID,101.499,VALID,0,VALID,23.4992,VALID,143,VALID,0.525391,
2010-07-23, 03:32:04,VALID,1007.89,VALID,0,VALID,101.491,VALID,0,VALID,23.4779,VALID,135,VALID,1.02734,
2010-07-23, 03:33:04,VALID,1007.89,VALID,0,VALID,101.491,VALID,0.105969,VALID,23.4992,VALID,126,VALID,1.09414,
2010-07-23, 03:34:04,VALID,1007.89,VALID,0,VALID,101.468,VALID,0,VALID,23.4992,VALID,131,VALID,0.526563,
2010-07-23, 03:35:04,VALID,1007.85,VALID,0,VALID,101.468,VALID,0,VALID,23.4974,VALID,123,VALID,0.696094,
2010-07-23, 03:36:04,VALID,1007.86,VALID,0,VALID,101.445,VALID,0.105969,VALID,23.5186,VALID,151,VALID,0.711719,
2010-07-23, 03:37:04,VALID,1007.84,VALID,0,VALID,101.453,VALID,0,VALID,23.4974,VALID,146,VALID,0.986328,
2010-07-23, 03:38:04,VALID,1007.84,VALID,0,VALID,101.468,VALID,0.105969,VALID,23.4974,VALID,153,VALID,0.614453,
2010-07-23, 03:39:04,VALID,1007.85,VALID,0,VALID,101.445,VALID,0.105969,VALID,23.5169,VALID,151,VALID,0.66875,
2010-07-23, 03:40:04,VALID,1007.86,VALID,0,VALID,101.438,VALID,0.105969,VALID,23.5381,VALID,148,VALID,0.954687,
2010-07-23, 03:41:04,VALID,1007.83,VALID,0,VALID,101.461,VALID,0,VALID,23.5381,VALID,137,VALID,0.623828,